Terminal Aerodrome Forecast
Issued by NWS

Home | Current Version | Previous Version | Text Only | Print | Product List | Glossary On
Versions: 1 2 3 4 5 6 7 8 9 10 11 12 13 14 15 16 17 18 19 20 21 22 23 24 25
368
FTUS41 KCAR 150525
TAFFVE
TAF
KFVE 150525Z 1506/1606 26017G25KT P6SM SCT025
     FM151400 26012G22KT P6SM FEW250
     FM152000 26010KT P6SM FEW200=

USA.gov is the U.S. government's official web portal to all federal, state and local government web resources and services.